{"data":{"norad_id":60930,"epoch":"2026-09-21T18:59:16.736352Z","epoch_age_seconds":76905,"freshness":"FRESH","line1":"1 60930U 24155G   26264.79116593 -.00000608  00000+0 -16519-6 0  9999","line2":"2 60930  53.1603  94.4492 0001021  73.8069 286.3061 15.69708077119206","mean_motion":15.69708077,"eccentricity":0.0001021,"inclination_deg":53.1603,"raan_deg":94.4492,"arg_perigee_deg":73.8069,"mean_anomaly_deg":286.3061,"bstar":-1.6519e-7,"rev_number":11920,"period_min":91.736802600398,"perigee_km":359.04431686455,"apogee_km":360.42018976608,"semimajor_km":6737.8692533153,"source":"CELESTRAK","updated_at":"2026-09-22T09:00:49.289794Z"}}